Terug naar catalogus

COSMOS 80

ActiefMilitairLEO
NORAD 1570·PAYLOAD·🇷🇺 Russia

Gelanceerd Sep 3, 1965 vanaf Baikonur Cosmodrome

Loading…

Volgende Passages (komende 24 uur)

TLE

VersSource: Space-Track

Epoch: Sep 14, 2026, 08:07 UTC

1 01570U 65070A   26257.33824170 -.00000102  00000-0 -32826-4 0  9991
2 01570  56.0536 228.7090 0102773  82.8893  64.5907 12.52801268792527

Volg COSMOS 80 in realtime met AllMySat

Download on the App Store